Clinton, OK

4:33 PM CDT on October 23, 2017 (GMT -0500)
Clinton Municipal

Weather History for KCLK - January, 2013

Change the Weather History Date:

Monday, January 21, 2013

  Actual Average (KCSM) Record (KCSM)
Temperature  
Mean Temperature 32 °F -  
Max Temperature 42 °F 48 °F 70 °F (2009)
Min Temperature 21 °F 27 °F 19 °F (2011)
Degree Days  
Heating Degree Days 34    
Moisture  
Dew Point 11 °F    
Average Humidity 45    
Maximum Humidity 59    
Minimum Humidity 26    
Precipitation  
Precipitation 0.00 in - - ()
Sea Level Pressure  
Sea Level Pressure 30.31 in    
Wind  
Wind Speed 14 mph (NE)    
Max Wind Speed 28 mph    
Max Gust Speed 32 mph    
Visibility 10 miles    
Events      
Averages and records for this station are not official NWS values.
T = Trace of Precipitation, MM = Missing Value Source: NWS Daily Summary

Daily Weather History Graph

Daily Weather History Graph

Search for Another Location

Airport or City:

Trip Planner

Search our weather history database for the weather conditions in past years. The results will help you decide how hot, cold, wet, or windy it might be!

Date:

Astronomy

Jan. 21, 2013 Rise Set
Actual Time 7:42 AM CST 5:52 PM CST
Civil Twilight 7:14 AM CST 6:19 PM CST
Nautical Twilight 6:43 AM CST 6:50 PM CST
Astronomical Twilight 6:13 AM CST 7:21 PM CST
Moon 1:34 PM CST (1/21) 3:11 AM CST (1/21)
Length of Visible Light 11h 05m
Length of Day
10h 10m
Waxing Gibbous, 75% of the Moon is Illuminated
Jan 21
Waxing Gibbous
Jan 26
Full
Feb 3
Last Quarter
Feb 10
New
Feb 17
First Quarter

Hourly Weather History & Observations

Time (CST) Temp. Windchill Dew Point Humidity Pressure Visibility Wind Dir Wind Speed Gust Speed Precip Events Conditions
12:15 AM 32.0 °F 18.1 °F 15.8 °F 51% 30.27 in 10.0 mi NNE 27.6 mph 32.2 mph N/A   Clear
12:35 AM 32.0 °F 19.2 °F 14.0 °F 48% 30.29 in 10.0 mi NNE 23.0 mph - N/A   Clear
12:55 AM 30.2 °F 16.8 °F 14.0 °F 51% 30.29 in 10.0 mi NNE 23.0 mph 28.8 mph N/A   Clear
1:15 AM 30.2 °F 16.8 °F 14.0 °F 51% 30.29 in 10.0 mi NNE 23.0 mph 27.6 mph N/A   Clear
1:35 AM 30.2 °F 17.8 °F 12.2 °F 47% 30.30 in 10.0 mi NNE 19.6 mph 26.5 mph N/A   Clear
1:55 AM 30.2 °F 17.4 °F 12.2 °F 47% 30.30 in 10.0 mi NNE 20.7 mph 28.8 mph N/A   Clear
2:15 AM 28.4 °F 14.7 °F 12.2 °F 51% 30.31 in 10.0 mi NNE 21.9 mph 27.6 mph N/A   Clear
2:35 AM 28.4 °F 14.4 °F 12.2 °F 51% 30.31 in 10.0 mi NNE 23.0 mph - N/A   Clear
2:55 AM 28.4 °F 15.8 °F 12.2 °F 51% 30.32 in 10.0 mi NNE 18.4 mph - N/A   Clear
3:35 AM 26.6 °F 15.7 °F 12.2 °F 55% 30.33 in 10.0 mi NNE 12.7 mph - N/A   Clear
3:55 AM 26.6 °F 15.7 °F 12.2 °F 55% 30.33 in 10.0 mi NNE 12.7 mph - N/A   Clear
4:15 AM 26.6 °F 14.7 °F 12.2 °F 55% 30.33 in 10.0 mi NNE 15.0 mph - N/A   Clear
4:35 AM 26.6 °F 15.2 °F 12.2 °F 55% 30.33 in 10.0 mi NNE 13.8 mph - N/A   Clear
4:55 AM 26.6 °F 15.7 °F 12.2 °F 55% 30.33 in 10.0 mi NNE 12.7 mph - N/A   Clear
5:15 AM 26.6 °F 16.2 °F 10.4 °F 51% 30.33 in 10.0 mi NNE 11.5 mph - N/A   Clear
5:35 AM 24.8 °F 12.9 °F 10.4 °F 54% 30.32 in 10.0 mi NNE 13.8 mph - N/A   Clear
6:15 AM 24.8 °F 12.4 °F 8.6 °F 50% 30.32 in 10.0 mi NNE 15.0 mph - N/A   Clear
6:35 AM 23.0 °F 11.1 °F 8.6 °F 54% 30.34 in 10.0 mi North 12.7 mph - N/A   Clear
6:55 AM 23.0 °F 12.4 °F 8.6 °F 54% 30.35 in 10.0 mi North 10.4 mph - N/A   Clear
7:15 AM 23.0 °F 13.9 °F 8.6 °F 54% 30.36 in 10.0 mi North 8.1 mph - N/A   Clear
7:35 AM 23.0 °F 14.7 °F 8.6 °F 54% 30.37 in 10.0 mi North 6.9 mph - N/A   Clear
7:55 AM 21.2 °F 14.9 °F 8.6 °F 58% 30.38 in 10.0 mi North 4.6 mph - N/A   Clear
8:15 AM 23.0 °F 14.7 °F 8.6 °F 54% 30.39 in 10.0 mi North 6.9 mph - N/A   Clear
8:35 AM 23.0 °F 13.1 °F 10.4 °F 59% 30.39 in 10.0 mi North 9.2 mph - N/A   Clear
8:55 AM 24.8 °F 14.0 °F 10.4 °F 54% 30.39 in 10.0 mi North 11.5 mph - N/A   Clear
9:15 AM 26.6 °F 15.7 °F 8.6 °F 47% 30.39 in 10.0 mi NNE 12.7 mph - N/A   Clear
9:35 AM 28.4 °F 18.0 °F 8.6 °F 43% 30.40 in 10.0 mi NNE 12.7 mph - N/A   Clear
9:55 AM 28.4 °F 17.5 °F 8.6 °F 43% 30.41 in 10.0 mi NNE 13.8 mph - N/A   Clear
10:15 AM 30.2 °F 19.8 °F 8.6 °F 40% 30.42 in 10.0 mi NNE 13.8 mph 17.3 mph N/A   Clear
10:35 AM 30.2 °F 20.8 °F 8.6 °F 40% 30.42 in 10.0 mi North 11.5 mph - N/A   Clear
11:15 AM 32.0 °F 24.8 °F 8.6 °F 38% 30.42 in 10.0 mi North 8.1 mph - N/A   Clear
11:35 AM 32.0 °F 25.6 °F 8.6 °F 38% 30.41 in 10.0 mi NNE 6.9 mph - N/A   Clear
11:55 AM 32.0 °F 24.8 °F 8.6 °F 38% 30.40 in 10.0 mi North 8.1 mph - N/A   Clear
12:15 PM 33.8 °F 29.6 °F 8.6 °F 35% 30.39 in 10.0 mi NNE 4.6 mph - N/A   Clear
12:35 PM 33.8 °F 25.3 °F 8.6 °F 35% 30.37 in 10.0 mi NNE 11.5 mph - N/A   Clear
12:55 PM 35.6 °F 27.1 °F 8.6 °F 33% 30.36 in 10.0 mi NNE 12.7 mph - N/A   Clear
1:15 PM 35.6 °F 29.9 °F 8.6 °F 33% 30.34 in 10.0 mi NNE 6.9 mph - N/A   Clear
1:35 PM 37.4 °F 31.4 °F 8.6 °F 30% 30.32 in 10.0 mi ENE 8.1 mph - N/A   Clear
1:55 PM 37.4 °F 32.1 °F 8.6 °F 30% 30.30 in 10.0 mi ENE 6.9 mph - N/A   Clear
2:15 PM 37.4 °F 33.8 °F 8.6 °F 30% 30.29 in 10.0 mi ESE 4.6 mph - N/A   Clear
2:35 PM 41.0 °F - 8.6 °F 26% 30.29 in 10.0 mi Calm Calm - N/A   Clear
2:55 PM 41.0 °F 39.0 °F 8.6 °F 26% 30.28 in 10.0 mi North 3.5 mph - N/A   Clear
3:15 PM 41.0 °F 37.1 °F 8.6 °F 26% 30.26 in 10.0 mi SE 5.8 mph - N/A   Clear
3:35 PM 41.0 °F 39.0 °F 8.6 °F 26% 30.27 in 10.0 mi ENE 3.5 mph - N/A   Clear
4:15 PM 42.8 °F 40.1 °F 10.4 °F 27% 30.26 in 10.0 mi East 4.6 mph - N/A   Clear
4:35 PM 42.8 °F 40.1 °F 10.4 °F 27% 30.26 in 10.0 mi East 4.6 mph - N/A   Clear
5:15 PM 41.0 °F 39.0 °F 10.4 °F 29% 30.25 in 10.0 mi East 3.5 mph - N/A   Clear
5:35 PM 41.0 °F 39.0 °F 10.4 °F 29% 30.24 in 10.0 mi East 3.5 mph - N/A   Clear
5:55 PM 37.4 °F 33.8 °F 12.2 °F 36% 30.24 in 10.0 mi East 4.6 mph - N/A   Clear
6:15 PM 35.6 °F 31.7 °F 12.2 °F 38% 30.23 in 10.0 mi ESE 4.6 mph - N/A   Clear
6:35 PM 35.6 °F 32.8 °F 12.2 °F 38% 30.24 in 10.0 mi ESE 3.5 mph - N/A   Clear
6:55 PM 33.8 °F 29.6 °F 14.0 °F 44% 30.24 in 10.0 mi ESE 4.6 mph - N/A   Clear
7:15 PM 33.8 °F 30.8 °F 14.0 °F 44% 30.25 in 10.0 mi ESE 3.5 mph - N/A   Clear
7:35 PM 32.0 °F 27.5 °F 14.0 °F 48% 30.24 in 10.0 mi SE 4.6 mph - N/A   Clear
7:55 PM 33.8 °F 29.6 °F 14.0 °F 44% 30.24 in 10.0 mi SE 4.6 mph - N/A   Clear
8:15 PM 32.0 °F 27.5 °F 14.0 °F 48% 30.24 in 10.0 mi SE 4.6 mph - N/A   Clear
8:35 PM 32.0 °F 27.5 °F 14.0 °F 48% 30.24 in 10.0 mi East 4.6 mph - N/A   Clear
8:55 PM 30.2 °F 23.4 °F 14.0 °F 51% 30.25 in 10.0 mi East 6.9 mph - N/A   Clear
9:15 PM 30.2 °F 22.6 °F 14.0 °F 51% 30.26 in 10.0 mi East 8.1 mph - N/A   Clear
9:35 PM 30.2 °F 23.4 °F 14.0 °F 51% 30.26 in 10.0 mi East 6.9 mph - N/A   Clear
9:55 PM 30.2 °F 23.4 °F 14.0 °F 51% 30.26 in 10.0 mi East 6.9 mph - N/A   Clear
10:15 PM 30.2 °F 23.4 °F 14.0 °F 51% 30.26 in 10.0 mi East 6.9 mph - N/A   Clear
10:35 PM 30.2 °F 24.3 °F 14.0 °F 51% 30.26 in 10.0 mi ESE 5.8 mph - N/A   Clear
10:55 PM 30.2 °F 25.4 °F 14.0 °F 51% 30.26 in 10.0 mi East 4.6 mph - N/A   Clear
11:15 PM 30.2 °F 24.3 °F 14.0 °F 51% 30.26 in 10.0 mi ESE 5.8 mph - N/A   Clear
11:35 PM 30.2 °F 25.4 °F 14.0 °F 51% 30.26 in 10.0 mi ESE 4.6 mph - N/A   Clear
11:55 PM 30.2 °F 26.7 °F 14.0 °F 51% 30.25 in 10.0 mi SE 3.5 mph - N/A   Clear